Location: Unnamed
(51.5169°N, 0.1311°W)
Time: 10:14:18
(UTC+01:00)

Tiangong - Visible Passes

Search period start: 20 May 2025 00:00
Search period end: 30 May 2025 00:00
Orbit: 377 x 385 km, 41.5° (Epoch: 19 May)

Date Brightness Start Highest point End Pass type
(mag) Time Alt. Az. Time Alt. Az. Time Alt. Az.
20 May 0.1 03:13:24 13° SSE 03:13:24 13° SSE 03:14:29 10° SE visible
21 May -0.1 03:47:33 13° SSW 03:48:24 14° S 03:50:04 10° SSE visible
23 May 0.1 03:24:03 11° S 03:24:03 11° S 03:24:34 10° SSE visible
29 May 0.1 21:52:48 10° S 21:53:26 10° SSE 21:54:02 10° SSE visible
